| time (UTC) | temp F | wind direction | speed MPH | gust MPH | rain 1hr in | rain 24hr in | rain mn in | humidity % | barometer mb |
| 20260507081520 | 46 | 135 | 0.0 | 1.0 | 0.00 | 0.47 | 0.11 | 99 | 1016.5 |
| 20260507080515 | 45 | 217 | 0.0 | 1.0 | 0.00 | 0.47 | 0.11 | 99 | 1016.4 |
| 20260507075520 | 45 | 138 | 0.0 | 1.0 | 0.00 | 0.47 | 0.11 | 99 | 1016.3 |
| 20260507074538 | 45 | 303 | 0.0 | 1.0 | 0.00 | 0.47 | 0.11 | 99 | 1016.2 |
| 20260507073517 | 45 | 198 | 0.0 | 1.0 | 0.00 | 0.47 | 0.11 | 99 | 1016.1 |
| 20260507072516 | 45 | 156 | 0.0 | 1.0 | 0.00 | 0.47 | 0.11 | 99 | 1016.0 |
| 20260507071540 | 45 | 239 | 0.0 | 2.0 | 0.00 | 0.48 | 0.11 | 99 | 1016.0 |
| 20260507070518 | 45 | 157 | 0.0 | 1.0 | 0.00 | 0.49 | 0.11 | 99 | 1015.8 |
| 20260507065517 | 45 | 150 | 0.0 | 1.0 | 0.00 | 0.50 | 0.11 | 99 | 1015.7 |
| 20260507064536 | 45 | 115 | 0.0 | 1.0 | 0.00 | 0.50 | 0.11 | 99 | 1015.6 |
| 20260507063515 | 45 | 147 | 0.0 | 1.0 | 0.00 | 0.51 | 0.11 | 99 | 1015.5 |
| 20260507062519 | 45 | 214 | 0.0 | 1.0 | 0.00 | 0.51 | 0.11 | 99 | 1015.4 |
| 20260507061518 | 45 | 199 | 0.0 | 1.0 | 0.00 | 0.52 | 0.11 | 99 | 1015.2 |
| 20260507060517 | 45 | 356 | 0.0 | 1.0 | 0.00 | 0.52 | 0.11 | 99 | 1015.2 |
| 20260507055536 | 45 | 118 | 0.0 | 1.0 | 0.00 | 0.53 | 0.11 | 99 | 1014.9 |
| 20260507054535 | 45 | 127 | 0.0 | 1.0 | 0.00 | 0.53 | 0.11 | 99 | 1014.8 |
| 20260507053520 | 45 | 84 | 0.0 | 3.0 | 0.00 | 0.54 | 0.11 | 99 | 1014.8 |
| 20260507052518 | 45 | 168 | 0.0 | 1.0 | 0.00 | 0.55 | 0.11 | 99 | 1014.6 |
| 20260507051518 | 45 | 159 | 0.0 | 2.0 | 0.00 | 0.56 | 0.11 | 99 | 1014.5 |
| 20260507050517 | 45 | 161 | 0.0 | 1.0 | 0.00 | 0.57 | 0.11 | 99 | 1014.3 |
| 20260507045516 | 46 | 0.0 | 0.0 | 0.00 | 0.58 | 0.11 | 99 | 1014.2 | |
| 20260507044520 | 46 | 191 | 0.0 | 1.0 | 0.01 | 0.59 | 0.11 | 99 | 1014.0 |
| 20260507043519 | 46 | 170 | 0.0 | 1.0 | 0.01 | 0.60 | 0.11 | 99 | 1014.0 |
| 20260507042518 | 46 | 0.0 | 0.0 | 0.01 | 0.61 | 0.11 | 99 | 1013.9 | |
| 20260507041517 | 46 | 215 | 0.0 | 2.0 | 0.01 | 0.62 | 0.11 | 99 | 1013.7 |
| 20260507040516 | 46 | 307 | 0.0 | 2.0 | 0.01 | 0.64 | 0.11 | 99 | 1013.7 |
| 20260507035519 | 46 | 111 | 0.0 | 1.0 | 0.01 | 0.65 | 0.11 | 99 | 1013.6 |
| 20260507034518 | 46 | 95 | 0.0 | 1.0 | 0.00 | 0.65 | 0.10 | 99 | 1013.6 |
| 20260507033517 | 47 | 178 | 0.0 | 1.0 | 0.00 | 0.66 | 0.10 | 99 | 1013.5 |
| 20260507032515 | 47 | 111 | 0.0 | 1.0 | 0.00 | 0.67 | 0.10 | 99 | 1013.4 |
| 20260507031520 | 47 | 0.0 | 0.0 | 0.00 | 0.68 | 0.10 | 99 | 1013.3 | |
| 20260507030518 | 47 | 0.0 | 0.0 | 0.00 | 0.69 | 0.10 | 99 | 1013.3 | |
| 20260507025517 | 47 | 0.0 | 0.0 | 0.00 | 0.69 | 0.10 | 99 | 1013.2 | |
| 20260507024515 | 47 | 54 | 0.0 | 1.0 | 0.01 | 0.70 | 0.10 | 99 | 1013.2 |
| 20260507023519 | 47 | 134 | 0.0 | 1.0 | 0.01 | 0.71 | 0.10 | 99 | 1013.2 |
| 20260507022518 | 47 | 157 | 0.0 | 1.0 | 0.01 | 0.72 | 0.10 | 99 | 1013.2 |
| 20260507021517 | 47 | 277 | 0.0 | 2.0 | 0.02 | 0.73 | 0.10 | 99 | 1013.0 |
| 20260507020515 | 47 | 227 | 0.0 | 1.0 | 0.02 | 0.74 | 0.10 | 99 | 1012.9 |
| 20260507015519 | 47 | 240 | 0.0 | 1.0 | 0.03 | 0.74 | 0.10 | 99 | 1012.8 |
| 20260507014517 | 47 | 276 | 0.0 | 1.0 | 0.02 | 0.75 | 0.09 | 99 | 1012.8 |
| 20260507013516 | 47 | 293 | 0.0 | 1.0 | 0.02 | 0.75 | 0.09 | 99 | 1012.7 |
| 20260507012520 | 47 | 245 | 1.0 | 2.0 | 0.03 | 0.77 | 0.09 | 99 | 1012.6 |
| 20260507011518 | 47 | 215 | 1.0 | 3.0 | 0.02 | 0.77 | 0.08 | 99 | 1012.7 |
| 20260507010516 | 47 | 261 | 0.0 | 2.0 | 0.02 | 0.78 | 0.08 | 99 | 1012.7 |
| 20260507005520 | 47 | 278 | 0.0 | 3.0 | 0.02 | 0.78 | 0.07 | 99 | 1012.6 |
| 20260507004519 | 47 | 231 | 0.0 | 1.0 | 0.02 | 0.79 | 0.07 | 99 | 1012.5 |
| 20260507003517 | 47 | 258 | 0.0 | 2.0 | 0.02 | 0.79 | 0.07 | 99 | 1012.3 |
| 20260507002516 | 47 | 211 | 0.0 | 1.0 | 0.01 | 0.79 | 0.06 | 99 | 1012.4 |
| 20260507001519 | 47 | 186 | 0.0 | 1.0 | 0.01 | 0.80 | 0.06 | 99 | 1012.2 |
| 20260507000518 | 47 | 252 | 0.0 | 3.0 | 0.02 | 0.81 | 0.06 | 99 | 1012.2 |
| 20260506235517 | 47 | 227 | 0.0 | 2.0 | 0.01 | 0.81 | 0.05 | 99 | 1012.1 |
| 20260506234515 | 47 | 171 | 0.0 | 2.0 | 0.02 | 0.82 | 0.05 | 99 | 1012.2 |
| 20260506233518 | 47 | 177 | 0.0 | 2.0 | 0.03 | 0.82 | 0.05 | 99 | 1012.2 |
| 20260506232517 | 47 | 242 | 0.0 | 2.0 | 0.04 | 0.83 | 0.05 | 99 | 1012.0 |
| 20260506231536 | 47 | 183 | 0.0 | 2.0 | 0.05 | 0.84 | 0.05 | 99 | 1012.0 |
| 20260506230520 | 47 | 203 | 0.0 | 2.0 | 0.04 | 0.83 | 0.04 | 99 | 1012.0 |
| 20260506225519 | 47 | 237 | 0.0 | 3.0 | 0.04 | 0.84 | 0.04 | 99 | 1012.0 |
| 20260506224517 | 47 | 270 | 1.0 | 3.0 | 0.04 | 0.84 | 0.03 | 99 | 1011.9 |
| 20260506223515 | 47 | 292 | 0.0 | 2.0 | 0.03 | 0.83 | 0.02 | 99 | 1011.8 |
| 20260506222519 | 47 | 259 | 0.0 | 3.0 | 0.03 | 0.82 | 0.01 | 99 | 1011.7 |
| 20260506221516 | 47 | 247 | 1.0 | 2.0 | 0.03 | 0.82 | 0.00 | 99 | 1011.5 |
| 20260506220520 | 47 | 240 | 0.0 | 2.0 | 0.03 | 0.82 | 0.00 | 99 | 1011.5 |
| 20260506215518 | 47 | 257 | 0.0 | 1.0 | 0.04 | 0.82 | 0.82 | 99 | 1011.5 |
| 20260506214519 | 47 | 303 | 0.0 | 3.0 | 0.04 | 0.81 | 0.81 | 99 | 1011.4 |
| 20260506213516 | 48 | 246 | 0.0 | 1.0 | 0.05 | 0.81 | 0.81 | 99 | 1011.2 |
| 20260506212517 | 48 | 186 | 0.0 | 1.0 | 0.04 | 0.80 | 0.80 | 99 | 1011.1 |
| 20260506211519 | 48 | 205 | 0.0 | 2.0 | 0.04 | 0.79 | 0.79 | 99 | 1011.3 |
| 20260506210515 | 48 | 284 | 0.0 | 2.0 | 0.05 | 0.79 | 0.79 | 99 | 1011.3 |
| 20260506205518 | 48 | 227 | 1.0 | 2.0 | 0.06 | 0.78 | 0.78 | 99 | 1011.0 |
| 20260506204518 | 48 | 195 | 1.0 | 2.0 | 0.09 | 0.77 | 0.77 | 99 | 1011.1 |
| 20260506203518 | 49 | 239 | 0.0 | 1.0 | 0.11 | 0.76 | 0.76 | 99 | 1011.0 |
| 20260506202517 | 49 | 175 | 0.0 | 2.0 | 0.12 | 0.76 | 0.76 | 99 | 1010.9 |
| 20260506201518 | 49 | 248 | 0.0 | 1.0 | 0.11 | 0.75 | 0.75 | 99 | 1010.9 |
| 20260506200518 | 48 | 290 | 1.0 | 3.0 | 0.11 | 0.74 | 0.74 | 99 | 1011.0 |
| 20260506195556 | 48 | 300 | 1.0 | 3.0 | 0.09 | 0.72 | 0.72 | 99 | 1010.9 |
| 20260506194515 | 49 | 293 | 0.0 | 1.0 | 0.06 | 0.68 | 0.68 | 99 | 1010.8 |
| 20260506193515 | 48 | 283 | 0.0 | 1.0 | 0.04 | 0.65 | 0.65 | 99 | 1010.7 |
| 20260506192517 | 48 | 290 | 0.0 | 2.0 | 0.03 | 0.64 | 0.64 | 99 | 1010.5 |
| 20260506191518 | 48 | 295 | 1.0 | 4.0 | 0.03 | 0.64 | 0.64 | 99 | 1010.5 |
| 20260506190518 | 48 | 286 | 1.0 | 2.0 | 0.02 | 0.63 | 0.63 | 99 | 1010.4 |
| 20260506185516 | 49 | 293 | 1.0 | 3.0 | 0.03 | 0.63 | 0.63 | 99 | 1010.3 |
| 20260506184520 | 49 | 291 | 1.0 | 2.0 | 0.03 | 0.62 | 0.62 | 99 | 1010.2 |
| 20260506183539 | 49 | 299 | 1.0 | 3.0 | 0.03 | 0.61 | 0.61 | 99 | 1010.2 |
| 20260506182518 | 49 | 294 | 1.0 | 3.0 | 0.03 | 0.61 | 0.61 | 99 | 1010.1 |
| 20260506181515 | 49 | 280 | 0.0 | 1.0 | 0.04 | 0.61 | 0.61 | 99 | 1009.9 |
| 20260506180519 | 49 | 243 | 0.0 | 1.0 | 0.04 | 0.61 | 0.61 | 99 | 1009.9 |
| 20260506175600 | 49 | 280 | 1.0 | 3.0 | 0.04 | 0.60 | 0.60 | 99 | 1009.9 |
| 20260506174518 | 50 | 292 | 0.0 | 1.0 | 0.05 | 0.59 | 0.59 | 99 | 1009.9 |
| 20260506173556 | 50 | 268 | 0.0 | 2.0 | 0.04 | 0.58 | 0.58 | 99 | 1009.8 |
| 20260506172518 | 50 | 211 | 0.0 | 1.0 | 0.05 | 0.58 | 0.58 | 99 | 1009.8 |
| 20260506171516 | 50 | 286 | 0.0 | 1.0 | 0.04 | 0.57 | 0.57 | 99 | 1009.6 |
| 20260506170518 | 50 | 264 | 0.0 | 2.0 | 0.04 | 0.57 | 0.57 | 99 | 1009.6 |
| 20260506165517 | 50 | 237 | 0.0 | 1.0 | 0.03 | 0.56 | 0.56 | 99 | 1009.5 |
| 20260506164520 | 50 | 288 | 0.0 | 4.0 | 0.01 | 0.54 | 0.54 | 99 | 1009.6 |
| 20260506163538 | 50 | 288 | 1.0 | 2.0 | 0.01 | 0.54 | 0.54 | 99 | 1009.5 |
| 20260506162519 | 50 | 275 | 0.0 | 2.0 | 0.00 | 0.53 | 0.53 | 99 | 1009.4 |
| 20260506161518 | 51 | 0.0 | 0.0 | 0.00 | 0.53 | 0.53 | 99 | 1009.4 | |
| 20260506160519 | 51 | 280 | 0.0 | 2.0 | 0.01 | 0.53 | 0.53 | 99 | 1009.5 |
| 20260506155520 | 50 | 0.0 | 0.0 | 0.01 | 0.53 | 0.53 | 99 | 1009.4 | |
| 20260506154538 | 50 | 263 | 0.0 | 1.0 | 0.02 | 0.53 | 0.53 | 99 | 1009.5 |
| 20260506153518 | 50 | 286 | 0.0 | 1.0 | 0.02 | 0.53 | 0.53 | 99 | 1009.5 |
| 20260506152517 | 51 | 230 | 0.0 | 1.0 | 0.02 | 0.53 | 0.53 | 99 | 1009.6 |
| 20260506151516 | 51 | 189 | 0.0 | 1.0 | 0.02 | 0.53 | 0.53 | 99 | 1009.5 |
| 20260506150516 | 50 | 276 | 0.0 | 1.0 | 0.01 | 0.52 | 0.52 | 98 | 1009.5 |
| 20260506145518 | 50 | 0.0 | 0.0 | 0.01 | 0.52 | 0.52 | 98 | 1009.6 | |
| 20260506144517 | 50 | 212 | 0.0 | 1.0 | 0.00 | 0.51 | 0.51 | 98 | 1009.5 |
| 20260506143518 | 50 | 150 | 0.0 | 1.0 | 0.00 | 0.51 | 0.51 | 98 | 1009.4 |
| 20260506142517 | 50 | 0.0 | 0.0 | 0.00 | 0.51 | 0.51 | 99 | 1009.5 | |
| 20260506141517 | 50 | 128 | 0.0 | 1.0 | 0.00 | 0.51 | 0.51 | 99 | 1009.5 |
| 20260506140518 | 50 | 0.0 | 0.0 | 0.00 | 0.51 | 0.51 | 99 | 1009.5 | |
| 20260506135539 | 50 | 154 | 0.0 | 1.0 | 0.00 | 0.51 | 0.51 | 99 | 1009.6 |
| 20260506134540 | 50 | 120 | 0.0 | 1.0 | 0.00 | 0.51 | 0.51 | 99 | 1009.6 |
| 20260506133515 | 50 | 116 | 0.0 | 1.0 | 0.00 | 0.51 | 0.51 | 99 | 1009.5 |
| 20260506132519 | 50 | 113 | 0.0 | 1.0 | 0.00 | 0.51 | 0.51 | 99 | 1009.5 |
| 20260506131538 | 50 | 221 | 0.0 | 1.0 | 0.00 | 0.51 | 0.51 | 99 | 1009.4 |
| 20260506130517 | 50 | 225 | 0.0 | 2.0 | 0.00 | 0.51 | 0.51 | 99 | 1009.5 |
| 20260506125518 | 50 | 145 | 0.0 | 1.0 | 0.01 | 0.51 | 0.51 | 99 | 1009.5 |
| 20260506124520 | 50 | 148 | 0.0 | 1.0 | 0.01 | 0.51 | 0.51 | 99 | 1009.4 |
| 20260506123556 | 50 | 109 | 0.0 | 1.0 | 0.01 | 0.51 | 0.51 | 99 | 1009.4 |
| 20260506122518 | 50 | 157 | 0.0 | 1.0 | 0.01 | 0.51 | 0.51 | 99 | 1009.4 |
| 20260506121520 | 50 | 179 | 0.0 | 1.0 | 0.01 | 0.51 | 0.51 | 99 | 1009.4 |
| 20260506120517 | 49 | 100 | 0.0 | 1.0 | 0.01 | 0.51 | 0.51 | 99 | 1009.3 |
| 20260506115517 | 49 | 193 | 0.0 | 1.0 | 0.00 | 0.50 | 0.50 | 99 | 1009.3 |
| 20260506114518 | 49 | 227 | 0.0 | 2.0 | 0.01 | 0.50 | 0.50 | 99 | 1009.4 |
| 20260506113519 | 49 | 233 | 0.0 | 2.0 | 0.01 | 0.50 | 0.50 | 99 | 1009.3 |
| 20260506112516 | 48 | 224 | 0.0 | 1.0 | 0.01 | 0.50 | 0.50 | 99 | 1009.4 |
| 20260506111518 | 48 | 170 | 0.0 | 1.0 | 0.02 | 0.50 | 0.50 | 99 | 1009.5 |
| 20260506110518 | 48 | 91 | 0.0 | 1.0 | 0.02 | 0.50 | 0.50 | 99 | 1009.3 |
| 20260506105518 | 48 | 132 | 0.0 | 1.0 | 0.02 | 0.50 | 0.50 | 99 | 1009.3 |
| 20260506104520 | 48 | 160 | 0.0 | 2.0 | 0.02 | 0.49 | 0.49 | 99 | 1009.4 |
| 20260506103515 | 48 | 217 | 0.0 | 1.0 | 0.02 | 0.49 | 0.49 | 99 | 1009.3 |
| 20260506102517 | 48 | 104 | 0.0 | 2.0 | 0.03 | 0.49 | 0.49 | 99 | 1009.3 |
| 20260506101518 | 48 | 140 | 0.0 | 1.0 | 0.02 | 0.48 | 0.48 | 99 | 1009.2 |
| 20260506100518 | 48 | 175 | 0.0 | 1.0 | 0.02 | 0.48 | 0.48 | 99 | 1009.3 |
| 20260506095520 | 47 | 167 | 0.0 | 1.0 | 0.02 | 0.48 | 0.48 | 99 | 1009.3 |
| 20260506094516 | 47 | 162 | 0.0 | 1.0 | 0.01 | 0.47 | 0.47 | 99 | 1009.2 |
| 20260506093519 | 47 | 331 | 0.0 | 1.0 | 0.01 | 0.47 | 0.47 | 99 | 1009.1 |
| 20260506092516 | 47 | 82 | 0.0 | 1.0 | 0.00 | 0.46 | 0.46 | 99 | 1009.1 |
| 20260506091519 | 47 | 255 | 0.0 | 1.0 | 0.00 | 0.46 | 0.46 | 99 | 1009.0 |
| 20260506090600 | 47 | 153 | 0.0 | 2.0 | 0.00 | 0.46 | 0.46 | 99 | 1008.9 |
| 20260506085516 | 47 | 137 | 0.0 | 1.0 | 0.00 | 0.46 | 0.46 | 99 | 1009.0 |
| 20260506084517 | 48 | 171 | 0.0 | 1.0 | 0.00 | 0.46 | 0.46 | 99 | 1008.9 |
| 20260506083520 | 48 | 285 | 0.0 | 2.0 | 0.00 | 0.46 | 0.46 | 99 | 1008.9 |
| 20260506082535 | 48 | 130 | 1.0 | 2.0 | 0.00 | 0.46 | 0.46 | 99 | 1008.8 |